Regional Weather Roundup
Issued by NWS

Home | Current Version | Previous Version | Graphics & Text | Print | Product List | Glossary Off
Versions: 1 2 3 4 5 6 7 8 9 10 11 12 13 14 15 16 17 18 19 20 21 22 23 24 25 26 27 28 29 30 31 32 33 34 35 36 37 38 39 40 41 42 43 44 45 46 47 48 49 50

000
ASUS43 KMKX 232321
RWRWI

WISCONSIN REGIONAL WEATHER ROUNDUP
NATIONAL WEATHER SERVICE MILWAUKEE/SULLIVAN WI
500 PM CST THU FEB 23 2017

NOTE: "FAIR" INDICATES FEW OR NO CLOUDS BELOW 12,000 FEET WITH NO
SIGNIFICANT WEATHER AND/OR OBSTRUCTIONS TO VISIBILITY.

WIZ001-002-006>008-014>016-023>028-240000-
NORTHWEST WISCONSIN

CITY           SKY/WX    TMP DP  RH WIND       PRES   REMARKS
SUPERIOR ARPT  CLOUDY    31  24  77 N7        29.99R WCI  24
ASHLAND        CLOUDY    30  23  75 W6        29.96R WCI  24
HAYWARD        MOCLDY    30  22  72 N9        29.92S WCI  22
SIREN          CLOUDY    30  23  74 N8        29.94S WCI  22
CUMBERLAND     CLOUDY    32  23  69 N12       29.89S WCI  23
RICE LAKE      CLOUDY    34  26  71 N8        29.90S WCI  27
CHETEK         CLOUDY    35  25  66 N7        29.88F WCI  29
LADYSMITH      MOCLDY    35  26  69 N9        29.90S WCI  28
EAU CLAIRE     CLOUDY    38  25  59 N9        29.86S WCI  31
MENOMONIE      CLOUDY    38  27  65 N8        29.88R WCI  32
NEW RICHMOND   CLOUDY    33  24  69 N10       29.91R WCI  25
OSCEOLA        CLOUDY    32  25  75 N7        29.95R WCI  25
$$

WIZ003>005-009-010-017-018-240000-
NORTH CENTRAL WISCONSIN

CITY           SKY/WX    TMP DP  RH WIND       PRES   REMARKS
MANITOWISH WTR CLOUDY    28  27  95 N5        29.89S WCI  23
ARBOR VITAE    CLOUDY    32  28  84 N9          N/A  WCI  24
WOODRUFF       CLOUDY    32  28  84 N9          N/A  WCI  24
RHINELANDER    CLOUDY    35  25  66 N8        29.87R WCI  29
EAGLE RIVER    MOCLDY    31  25  76 N5        29.87S WCI  27
LAND O LAKES   PTCLDY    31  26  80 NW6       29.89S WCI  25
PHILLIPS       PTCLDY    32  26  77 N7        29.87S WCI  26
TOMAHAWK       CLOUDY    35  24  63 N5        29.87S WCI  31
MEDFORD        CLOUDY    37  26  64 N8        29.84S WCI  30
MERRILL        NOT AVBL
$$

WIZ029-030-035-036-043>047-240000-
CENTRAL WISCONSIN

CITY           SKY/WX    TMP DP  RH WIND       PRES   REMARKS
WAUSAU         CLOUDY    40  23  50 NE5       29.83S
MOSINEE        CLOUDY    39  25  56 N9        29.85S WCI  33
MARSHFIELD     CLOUDY    39  25  57 NE8       29.83R WCI  33
STEVENS POINT  CLOUDY    39  24  53 NE6       29.85S WCI  35
WAUPACA        CLOUDY    44  28  53 E7        29.86R
WAUTOMA        CLOUDY    41  31  67 E8        29.85R
WISC RAPIDS    CLOUDY    43  26  51 NE8       29.85R
CAMP DOUGLAS   CLOUDY    44  29  57 NE6       29.81S
$$

WIZ011>013-019>022-031-037>040-048>050-240000-
NORTHEAST WISCONSIN

CITY           SKY/WX    TMP DP  RH WIND       PRES   REMARKS
ANTIGO         MOCLDY    37  26  63 NE7       29.85S WCI  32
SHAWANO        CLOUDY    42  27  54 E8        29.87R
OCONTO         MOCLDY    35  25  68 E9G16     29.89R WCI  27
STURGEON BAY   MOCLDY    36  26  67 E7        29.90R WCI  30
GREEN BAY      CLOUDY    41  30  65 N9        29.88R
MANITOWOC      CLOUDY    36  28  73 E7        29.91R WCI  30
APPLETON       MOCLDY    39  27  60 E7        29.84S WCI  34
CLINTONVILLE   CLOUDY    43  25  49 E7        29.86R
OSHKOSH        CLOUDY    38  30  73 E7        29.85F WCI  33
$$

WIZ032>034-041-042-053>061-240000-
SOUTHWEST WISCONSIN

CITY           SKY/WX    TMP DP  RH WIND       PRES   REMARKS
LA CROSSE      CLOUDY    45  30  55 N13G18    29.81R
SPARTA         CLOUDY    43  31  62 NE8       29.82S
VIROQUA        CLOUDY    42  32  67 NE8       29.78S
BOSCOBEL       CLOUDY    46  33  60 E9G16     29.77F
PRAIRIE DU CHI DRIZZLE   45  32  62 NE7       29.75F
PLATTEVILLE    CLOUDY    42  40  95 E13G18    29.75R
$$

WIZ056-057-062-063-064-067-068-240000-
SOUTH CENTRAL WISCONSIN

CITY           SKY/WX    TMP DP  RH WIND       PRES   REMARKS
REEDSBURG      CLOUDY    41  32  70 E9        29.80S
BARABOO/DELLS  CLOUDY    40  32  73 E10       29.80S WCI  34
LONE ROCK      CLOUDY    44  34  67 E14       29.79S
MINERAL POINT  LGT RAIN  43  39  87 NE14      29.73F
MADISON        LGT RAIN  40  33  76 NE12      29.80S WCI  33
MIDDLETON      CLOUDY    42  35  78 NE15      29.80S
WATERTOWN      CLOUDY    37  33  87 E13       29.83R WCI  29
MONROE         LGT RAIN  37  37 100 E10G16    29.77R WCI  30
JANESVILLE     LGT RAIN  39  37  93 E17       29.78S WCI  30
$$

WIZ051-052-058>065-066-070>072-240000-
SOUTHEAST WISCONSIN

CITY           SKY/WX    TMP DP  RH WIND       PRES   REMARKS
MILWAUKEE      LGT RAIN  37  31  78 NE17G29   29.83F WCI  27
WAUKESHA       DRIZZLE   34  28  80 NE16G22   29.84F WCI  23
MILWAUKEE/TIMM LGT RAIN  36  28  75 NE14G20   29.86S WCI  27
RACINE         LGT RAIN  36  31  82 N16G30    29.84F WCI  26
KENOSHA        LGT RAIN  36  32  85 NE12      29.84R WCI  28
FOND DU LAC    CLOUDY    39  30  70 E10       29.85S WCI  32
SHEBOYGAN      CLOUDY    35  29  78 NE15      29.86F WCI  25
WEST BEND      CLOUDY    34  32  93 NE16      29.85S WCI  23
JUNEAU         CLOUDY    37  32  81 NE10      29.84S WCI  30
$$

LSZ147-162-240000-
LAKE SUPERIOR

STATION/POSITION TIME  TEMP    WIND        PRES    WAVE
                       AIR SEA DIR/SP/G            HT/PER
                 (UTC) (F)     (DEG/KT/KT) (MB)    (FT/S)
DEVILS ISLAND    2300   31     240/ 17/ 20 1015.1R
PORT WING        2240   30     250/  6/  8 1015.2R
SAXON HARBOR     2240   32     330/  8/  9 1014.2R
$$

LMZ867-665-643>646-240000-
LAKE MICHIGAN

STATION/POSITION TIME  TEMP    WIND        PRES    WAVE
                       AIR SEA DIR/SP/G            HT/PER
                 (UTC) (F)     (DEG/KT/KT) (MB)    (FT/S)
CHAMBERS ISLAND  2230   34      40/ 12/ 15 1011.9R
NORTHPORT PIER   2240   35     360/ 10/ 12 1012.5R
SISTER BAY       2235   37      30/  8/ 12   N/A
KEWAUNEE LAKESHO 2254   36      70/  7/ 11 1012.0R
SHEBOYGAN LAKESH 2300   36      40/ 17/ 17 1012.0F
PORT WASHINGTON  2240   37      60/ 12/ 16 1012.5S
MILWAUKEE LAKESH 2300   36      30/ 19/ 21   N/A
KENOSHA   LAKESH 2300   36      30/ 18/ 22 1010.5
$$

TC  - TEMPERATURE IN CELSIUS
VSB - VISIBILITY IN STATUTE MILES
WCI - WIND CHILL INDEX
HX  - HEAT INDEX




USA.gov is the U.S. government's official web portal to all federal, state and local government web resources and services.